Location: Breitenfeld
(46.8500°N, 15.6333°E)
Time: 10:27:42
(UTC+00:00)

Transit 4B - Pass Details

Date: 04 June 2022
Orbit: 948 x 1097 km, 32.4° (Epoch: 01 July)

Event Time Altitude Azimuth Distance (km) Brightness Sun altitude
Exits shadow 02:20:54 - 244° (WSW) 3,121 10.5 -6.7°
Reaches altitude 10° 02:22:20 10° 236° (SW) 2,782 10.2 -6.6°
Maximum altitude 02:26:23 17° 198° (SSW) 2,285 9.9 -6.0°
Drops below altitude 10° 02:30:21 10° 161° (SSE) 2,716 10.6 -5.5°
Sets 02:33:57 0° 141° (SE) 3,637 11.5 -5.1°
